Pensacola NAS, FL

5:35 PM CDT on May 26, 2018 (GMT -0500)
Pensacola Naval Air Station

Weather History for KNPA - March, 2013

Change the Weather History Date:

Monday, March 18, 2013

  Actual Average Record
Temperature  
Mean Temperature 68 °F -  
Max Temperature 73 °F 67 °F 80 °F (2011)
Min Temperature 63 °F 50 °F 37 °F (2007)
Cooling Degree Days 3    
Growing Degree Days 18 (Base 50)    
Moisture  
Dew Point 65 °F    
Average Humidity 92    
Maximum Humidity 100    
Minimum Humidity 78    
Precipitation  
Precipitation 0.00 in - - ()
Sea Level Pressure  
Sea Level Pressure 29.89 in    
Wind  
Wind Speed 9 mph (SSE)    
Max Wind Speed 16 mph    
Max Gust Speed 20 mph    
Visibility 7 miles    
Events Fog , Rain    
Averages and records for this station are not official NWS values.
T = Trace of Precipitation, MM = Missing Value Source: NWS Daily Summary

Daily Weather History Graph

Daily Weather History Graph

Search for Another Location

Airport or City:

Astronomy

Mar. 18, 2013 Rise Set
Actual Time 6:55 AM CDT 6:59 PM CDT
Civil Twilight 6:31 AM CDT 7:23 PM CDT
Nautical Twilight 6:03 AM CDT 7:51 PM CDT
Astronomical Twilight 5:35 AM CDT 8:19 PM CDT
Moon 11:17 AM CDT (3/18) 12:35 AM CDT (3/18)
Length of Visible Light 12h 52m
Length of Day
12h 04m
Waxing Crescent, 41% of the Moon is Illuminated
Mar 18
Waxing Crescent
Mar 19
First Quarter
Mar 27
Full
Apr 2
Last Quarter
Apr 10
New

Hourly Weather History & Observations

Time (CDT) Temp. Dew Point Humidity Pressure Visibility Wind Dir Wind Speed Gust Speed Precip Events Conditions
12:56 AM 64.0 °F 63.0 °F 96% 29.92 in 10.0 mi SSE 9.2 mph - N/A   Partly Cloudy
1:56 AM 64.0 °F 63.0 °F 96% 29.91 in 10.0 mi SSE 10.4 mph - N/A   Scattered Clouds
2:56 AM 64.0 °F 63.0 °F 96% 29.91 in 10.0 mi SSE 9.2 mph - N/A   Overcast
3:56 AM 63.0 °F 62.1 °F 97% 29.90 in 8.0 mi SSE 6.9 mph - N/A   Partly Cloudy
4:56 AM 64.0 °F 63.0 °F 96% 29.91 in 9.0 mi SSE 5.8 mph - N/A   Mostly Cloudy
5:33 AM 64.4 °F 62.6 °F 94% 29.91 in 9.0 mi SE 6.9 mph - N/A   Overcast
5:56 AM 64.0 °F 63.0 °F 96% 29.93 in 10.0 mi SE 8.1 mph - N/A   Mostly Cloudy
6:56 AM 64.9 °F 63.0 °F 93% 29.94 in 10.0 mi SE 6.9 mph - N/A   Mostly Cloudy
7:56 AM 66.0 °F 64.0 °F 93% 29.94 in 10.0 mi SSE 9.2 mph - N/A   Mostly Cloudy
8:10 AM 66.2 °F 62.6 °F 88% 29.93 in 10.0 mi SSE 10.4 mph - N/A   Mostly Cloudy
8:56 AM 66.9 °F 64.0 °F 90% 29.95 in 10.0 mi SSE 8.1 mph - N/A   Mostly Cloudy
9:56 AM 70.0 °F 64.9 °F 84% 29.94 in 10.0 mi SE 12.7 mph - N/A   Mostly Cloudy
10:32 AM 71.6 °F 64.4 °F 78% 29.93 in 10.0 mi SE 12.7 mph - N/A   Mostly Cloudy
10:56 AM 71.1 °F 64.9 °F 81% 29.93 in 10.0 mi SE 13.8 mph - N/A   Mostly Cloudy
11:56 AM 72.0 °F 66.0 °F 81% 29.92 in 10.0 mi SE 16.1 mph 19.6 mph N/A   Mostly Cloudy
12:14 PM 71.6 °F 66.2 °F 83% 29.91 in 10.0 mi SE 12.7 mph - N/A   Mostly Cloudy
12:56 PM 72.0 °F 66.0 °F 81% 29.92 in 10.0 mi SSE 12.7 mph - N/A   Overcast
1:07 PM 71.6 °F 66.2 °F 83% 29.91 in 10.0 mi SE 12.7 mph - N/A   Overcast
1:56 PM 73.0 °F 66.9 °F 81% 29.88 in 10.0 mi SSE 15.0 mph - N/A   Mostly Cloudy
2:48 PM 71.6 °F 66.2 °F 83% 29.85 in 9.0 mi SSE 13.8 mph - N/A   Overcast
2:56 PM 71.1 °F 66.9 °F 87% 29.86 in 9.0 mi SSE 13.8 mph - N/A   Overcast
3:56 PM 70.0 °F 66.9 °F 90% 29.84 in 9.0 mi SSE 11.5 mph - 0.00 in Rain Light Rain
4:11 PM 69.8 °F 66.2 °F 88% 29.84 in 10.0 mi SSE 11.5 mph - 0.00 in   Mostly Cloudy
4:21 PM 69.8 °F 66.2 °F 88% 29.83 in 8.0 mi South 8.1 mph - 0.00 in   Overcast
4:56 PM 69.1 °F 66.9 °F 93% 29.83 in 8.0 mi SSE 10.4 mph - 0.00 in   Overcast
5:56 PM 69.1 °F 66.9 °F 93% 29.81 in 8.0 mi SSE 11.5 mph - N/A   Overcast
6:56 PM 68.0 °F 66.9 °F 96% 29.83 in 5.0 mi South 9.2 mph - N/A   Overcast
7:56 PM 68.0 °F 66.9 °F 96% 29.85 in 7.0 mi SSW 5.8 mph - N/A   Mostly Cloudy
8:56 PM 68.0 °F 66.9 °F 96% 29.87 in 7.0 mi Calm Calm - N/A   Mostly Cloudy
9:03 PM 68.0 °F 66.2 °F 94% 29.87 in 7.0 mi Calm Calm - N/A   Overcast
9:56 PM 68.0 °F 66.9 °F 96% 29.87 in 4.0 mi South 4.6 mph - 0.00 in Rain Light Rain
10:20 PM 66.2 °F 66.2 °F 100% 29.87 in 2.0 mi South 4.6 mph - 0.00 in   Overcast
10:30 PM 66.2 °F 66.2 °F 100% 29.86 in 1.2 mi South 5.8 mph - 0.00 in   Overcast
10:39 PM 66.2 °F 66.2 °F 100% 29.87 in 0.5 mi SW 4.6 mph - 0.00 in Fog Fog
10:56 PM 66.9 °F 66.9 °F 100% 29.87 in 0.2 mi SW 5.8 mph - 0.00 in Fog Fog
11:07 PM 66.2 °F 66.2 °F 100% 29.86 in 0.5 mi SW 4.6 mph - N/A Fog Fog
11:31 PM 66.2 °F 66.2 °F 100% 29.88 in 0.2 mi WSW 4.6 mph - N/A Fog Fog
11:39 PM 66.2 °F 66.2 °F 100% 29.89 in 0.2 mi WSW 3.5 mph - N/A Fog Fog
11:56 PM 66.9 °F 66.9 °F 100% 29.90 in 0.2 mi Calm Calm - N/A Fog Fog